| time (UTC) | temp F | wind direction | speed MPH | gust MPH | rain 1hr in | rain 24hr in | rain mn in | humidity % | barometer mb |
| 20260505164515 | 78 | 230 | 13.0 | 25.0 | 0.00 | 0.00 | 0.00 | 74 | 1004.8 |
| 20260505164025 | 77 | 209 | 17.0 | 25.0 | 0.00 | 0.00 | 0.00 | 74 | 1004.6 |
| 20260505163514 | 78 | 220 | 15.0 | 22.0 | 0.00 | 0.00 | 0.00 | 74 | 1004.5 |
| 20260505163013 | 78 | 223 | 14.0 | 26.0 | 0.00 | 0.00 | 0.00 | 74 | 1004.4 |
| 20260505162512 | 78 | 215 | 16.0 | 26.0 | 0.00 | 0.00 | 0.00 | 74 | 1004.5 |
| 20260505162011 | 77 | 232 | 15.0 | 25.0 | 0.00 | 0.00 | 0.00 | 75 | 1004.6 |
| 20260505161512 | 78 | 200 | 15.0 | 27.0 | 0.00 | 0.00 | 0.00 | 75 | 1004.5 |
| 20260505161014 | 78 | 226 | 14.0 | 27.0 | 0.00 | 0.00 | 0.00 | 75 | 1004.6 |
| 20260505160511 | 77 | 202 | 15.0 | 24.0 | 0.00 | 0.00 | 0.00 | 74 | 1004.7 |
| 20260505153031 | 75 | 206 | 15.0 | 21.0 | 0.00 | 0.00 | 0.00 | 77 | 1005.0 |
| 20260505152531 | 75 | 208 | 13.0 | 23.0 | 0.00 | 0.00 | 0.00 | 79 | 1004.9 |
| 20260505152030 | 74 | 223 | 12.0 | 20.0 | 0.00 | 0.00 | 0.00 | 79 | 1005.0 |
| 20260505151526 | 75 | 229 | 11.0 | 21.0 | 0.00 | 0.00 | 0.00 | 79 | 1005.0 |
| 20260505151025 | 74 | 218 | 14.0 | 24.0 | 0.00 | 0.00 | 0.00 | 80 | 1004.9 |
| 20260505150524 | 74 | 209 | 13.0 | 23.0 | 0.00 | 0.00 | 0.00 | 80 | 1005.1 |
| 20260505140513 | 72 | 196 | 13.0 | 20.0 | 0.00 | 0.00 | 0.00 | 81 | 1005.0 |
| 20260505124610 | 71 | 199 | 9.0 | 16.0 | 0.00 | 0.00 | 0.00 | 84 | 1004.5 |
| 20260505124058 | 71 | 195 | 9.0 | 16.0 | 0.00 | 0.00 | 0.00 | 84 | 1004.4 |
| 20260505123557 | 70 | 183 | 7.0 | 16.0 | 0.00 | 0.00 | 0.00 | 84 | 1004.3 |
| 20260505123101 | 70 | 213 | 10.0 | 16.0 | 0.00 | 0.00 | 0.00 | 84 | 1004.4 |
| 20260505122556 | 70 | 203 | 8.0 | 12.0 | 0.00 | 0.00 | 0.00 | 84 | 1004.2 |
| 20260505122057 | 70 | 215 | 8.0 | 13.0 | 0.00 | 0.00 | 0.00 | 84 | 1004.2 |
| 20260505121556 | 70 | 228 | 8.0 | 15.0 | 0.00 | 0.00 | 0.00 | 84 | 1004.2 |
| 20260505121056 | 70 | 227 | 8.0 | 15.0 | 0.00 | 0.00 | 0.00 | 84 | 1004.0 |
| 20260505120551 | 70 | 207 | 8.0 | 14.0 | 0.00 | 0.00 | 0.00 | 84 | 1003.9 |
| 20260505120108 | 70 | 212 | 9.0 | 13.0 | 0.00 | 0.00 | 0.00 | 84 | 1004.0 |
| 20260505115551 | 70 | 215 | 8.0 | 13.0 | 0.00 | 0.00 | 0.00 | 84 | 1003.9 |
| 20260505115055 | 70 | 192 | 9.0 | 14.0 | 0.00 | 0.00 | 0.00 | 84 | 1004.1 |
| 20260505114551 | 70 | 200 | 9.0 | 18.0 | 0.00 | 0.00 | 0.00 | 84 | 1004.2 |
| 20260505114050 | 70 | 198 | 7.0 | 18.0 | 0.00 | 0.00 | 0.00 | 84 | 1004.0 |
| 20260505113550 | 70 | 209 | 9.0 | 18.0 | 0.00 | 0.00 | 0.00 | 84 | 1003.9 |
| 20260505113054 | 70 | 211 | 10.0 | 16.0 | 0.00 | 0.00 | 0.00 | 84 | 1003.9 |
| 20260505112554 | 70 | 202 | 10.0 | 16.0 | 0.00 | 0.00 | 0.00 | 84 | 1003.8 |
| 20260505112049 | 70 | 197 | 10.0 | 14.0 | 0.00 | 0.00 | 0.00 | 85 | 1003.8 |
| 20260505111549 | 70 | 207 | 11.0 | 18.0 | 0.00 | 0.00 | 0.00 | 85 | 1003.9 |
| 20260505111018 | 70 | 165 | 11.0 | 16.0 | 0.00 | 0.00 | 0.00 | 85 | 1003.6 |
| 20260505110518 | 70 | 186 | 10.0 | 19.0 | 0.00 | 0.00 | 0.00 | 85 | 1003.7 |
| 20260505102013 | 70 | 198 | 11.0 | 21.0 | 0.00 | 0.00 | 0.00 | 84 | 1003.7 |
| 20260505101513 | 70 | 198 | 10.0 | 18.0 | 0.00 | 0.00 | 0.00 | 84 | 1003.6 |
| 20260505101012 | 70 | 193 | 10.0 | 18.0 | 0.00 | 0.00 | 0.00 | 84 | 1003.8 |
| 20260505100512 | 70 | 209 | 10.0 | 16.0 | 0.00 | 0.00 | 0.00 | 84 | 1003.8 |
| 20260505100017 | 70 | 209 | 9.0 | 15.0 | 0.00 | 0.00 | 0.00 | 84 | 1003.9 |
| 20260505095511 | 70 | 208 | 9.0 | 18.0 | 0.00 | 0.00 | 0.00 | 84 | 1004.1 |
| 20260505095011 | 70 | 205 | 10.0 | 18.0 | 0.00 | 0.00 | 0.00 | 84 | 1004.0 |
| 20260505094514 | 70 | 199 | 11.0 | 19.0 | 0.00 | 0.00 | 0.00 | 84 | 1004.0 |
| 20260505094040 | 70 | 222 | 11.0 | 20.0 | 0.00 | 0.00 | 0.00 | 84 | 1004.2 |
| 20260505093541 | 70 | 186 | 12.0 | 18.0 | 0.00 | 0.00 | 0.00 | 84 | 1004.1 |
| 20260505093040 | 70 | 180 | 12.0 | 18.0 | 0.00 | 0.00 | 0.00 | 84 | 1004.2 |
| 20260505092540 | 70 | 214 | 11.0 | 20.0 | 0.00 | 0.00 | 0.00 | 84 | 1004.3 |
| 20260505092040 | 70 | 197 | 13.0 | 20.0 | 0.00 | 0.00 | 0.00 | 83 | 1004.3 |
| 20260505091540 | 70 | 206 | 11.0 | 18.0 | 0.00 | 0.00 | 0.00 | 83 | 1004.1 |
| 20260505091011 | 70 | 166 | 12.0 | 18.0 | 0.00 | 0.00 | 0.00 | 83 | 1004.0 |
| 20260505090512 | 70 | 208 | 12.0 | 20.0 | 0.00 | 0.00 | 0.00 | 83 | 1004.0 |
| 20260505090011 | 70 | 198 | 13.0 | 24.0 | 0.00 | 0.00 | 0.00 | 83 | 1004.0 |
| 20260505085511 | 70 | 212 | 14.0 | 20.0 | 0.00 | 0.00 | 0.00 | 83 | 1003.9 |
| 20260505085011 | 70 | 202 | 12.0 | 21.0 | 0.00 | 0.00 | 0.00 | 83 | 1004.0 |
| 20260505084517 | 70 | 175 | 12.0 | 21.0 | 0.00 | 0.00 | 0.00 | 83 | 1003.8 |
| 20260505084038 | 70 | 215 | 13.0 | 23.0 | 0.00 | 0.00 | 0.00 | 83 | 1003.8 |
| 20260505083542 | 70 | 193 | 12.0 | 19.0 | 0.00 | 0.00 | 0.00 | 83 | 1003.9 |
| 20260505083038 | 70 | 172 | 11.0 | 22.0 | 0.00 | 0.00 | 0.00 | 83 | 1004.0 |
| 20260505082538 | 70 | 205 | 12.0 | 20.0 | 0.00 | 0.00 | 0.00 | 83 | 1004.1 |
| 20260505082036 | 70 | 202 | 13.0 | 20.0 | 0.00 | 0.00 | 0.00 | 83 | 1004.3 |
| 20260505081543 | 70 | 225 | 13.0 | 21.0 | 0.00 | 0.00 | 0.00 | 83 | 1004.3 |
| 20260505081034 | 70 | 210 | 15.0 | 24.0 | 0.00 | 0.00 | 0.00 | 82 | 1004.3 |
| 20260505080532 | 70 | 175 | 15.0 | 24.0 | 0.00 | 0.00 | 0.00 | 82 | 1004.6 |
| 20260505080037 | 70 | 194 | 13.0 | 22.0 | 0.00 | 0.00 | 0.00 | 82 | 1004.7 |
| 20260505075535 | 70 | 211 | 12.0 | 20.0 | 0.00 | 0.00 | 0.00 | 82 | 1004.5 |
| 20260505075032 | 70 | 218 | 12.0 | 20.0 | 0.00 | 0.00 | 0.00 | 82 | 1004.6 |
| 20260505074531 | 70 | 186 | 13.0 | 20.0 | 0.00 | 0.00 | 0.00 | 82 | 1004.7 |
| 20260505074031 | 70 | 360 | 10.0 | 21.0 | 0.00 | 0.00 | 0.00 | 82 | 1004.6 |
| 20260505073531 | 70 | 360 | 14.0 | 21.0 | 0.00 | 0.00 | 0.00 | 83 | 1004.8 |
| 20260505073041 | 70 | 197 | 14.0 | 23.0 | 0.00 | 0.00 | 0.00 | 83 | 1004.9 |
| 20260505072528 | 70 | 209 | 11.0 | 21.0 | 0.00 | 0.00 | 0.00 | 83 | 1005.1 |
| 20260505072028 | 70 | 183 | 12.0 | 24.0 | 0.00 | 0.00 | 0.00 | 82 | 1005.1 |
| 20260505071545 | 70 | 190 | 14.0 | 24.0 | 0.00 | 0.00 | 0.00 | 82 | 1005.2 |
| 20260505071027 | 70 | 360 | 12.0 | 21.0 | 0.00 | 0.00 | 0.00 | 82 | 1005.3 |
| 20260505070523 | 70 | 360 | 14.0 | 22.0 | 0.00 | 0.00 | 0.00 | 82 | 1005.2 |
| 20260505070023 | 70 | 205 | 13.0 | 22.0 | 0.00 | 0.00 | 0.00 | 82 | 1005.3 |
| 20260505065522 | 70 | 360 | 10.0 | 23.0 | 0.00 | 0.00 | 0.00 | 82 | 1005.4 |
| 20260505065023 | 70 | 360 | 14.0 | 26.0 | 0.00 | 0.00 | 0.00 | 82 | 1005.5 |
| 20260505064525 | 70 | 360 | 12.0 | 19.0 | 0.00 | 0.00 | 0.00 | 82 | 1005.6 |
| 20260505064026 | 70 | 360 | 12.0 | 18.0 | 0.00 | 0.00 | 0.00 | 82 | 1005.4 |
| 20260505064023 | 70 | 360 | 11.0 | 18.0 | 0.00 | 0.00 | 0.00 | 82 | 1005.4 |
| 20260505063521 | 70 | 360 | 11.0 | 18.0 | 0.00 | 0.00 | 0.00 | 82 | 1005.6 |
| 20260505063021 | 70 | 360 | 12.0 | 19.0 | 0.00 | 0.00 | 0.00 | 82 | 1005.6 |
| 20260505062520 | 70 | 223 | 9.0 | 20.0 | 0.00 | 0.00 | 0.00 | 81 | 1005.8 |
| 20260505062022 | 70 | 224 | 10.0 | 20.0 | 0.00 | 0.00 | 0.00 | 81 | 1005.9 |
| 20260505061520 | 71 | 202 | 11.0 | 20.0 | 0.00 | 0.00 | 0.00 | 81 | 1005.7 |
| 20260505061022 | 71 | 225 | 12.0 | 19.0 | 0.00 | 0.00 | 0.00 | 81 | 1005.6 |
| 20260505060516 | 71 | 233 | 11.0 | 19.0 | 0.00 | 0.00 | 0.00 | 81 | 1005.8 |
| 20260505060016 | 71 | 246 | 11.0 | 19.0 | 0.00 | 0.00 | 0.00 | 80 | 1005.7 |
| 20260505055516 | 71 | 196 | 12.0 | 17.0 | 0.00 | 0.00 | 0.00 | 80 | 1005.7 |
| 20260505055016 | 71 | 186 | 11.0 | 16.0 | 0.00 | 0.00 | 0.00 | 80 | 1005.8 |
| 20260505054516 | 71 | 193 | 8.0 | 15.0 | 0.00 | 0.00 | 0.00 | 80 | 1005.8 |
| 20260505054016 | 71 | 185 | 8.0 | 22.0 | 0.00 | 0.00 | 0.00 | 80 | 1005.9 |
| 20260505053515 | 71 | 211 | 11.0 | 22.0 | 0.00 | 0.00 | 0.00 | 80 | 1005.8 |
| 20260505053023 | 71 | 215 | 10.0 | 16.0 | 0.00 | 0.00 | 0.00 | 79 | 1005.9 |
| 20260505052518 | 71 | 213 | 8.0 | 14.0 | 0.00 | 0.00 | 0.00 | 79 | 1005.9 |
| 20260505052014 | 71 | 199 | 9.0 | 15.0 | 0.00 | 0.00 | 0.00 | 79 | 1005.9 |
| 20260505051523 | 71 | 205 | 9.0 | 16.0 | 0.00 | 0.00 | 0.00 | 79 | 1006.1 |
| 20260505051016 | 72 | 200 | 10.0 | 15.0 | 0.00 | 0.00 | 0.00 | 78 | 1006.0 |
| 20260505050541 | 72 | 211 | 9.0 | 19.0 | 0.00 | 0.00 | 0.00 | 78 | 1006.0 |
| 20260505041514 | 72 | 175 | 8.0 | 14.0 | 0.00 | 0.00 | 0.00 | 76 | 1006.2 |
| 20260505041008 | 72 | 184 | 6.0 | 14.0 | 0.00 | 0.00 | 0.00 | 76 | 1006.2 |
| 20260505040541 | 72 | 225 | 7.0 | 14.0 | 0.00 | 0.00 | 0.00 | 76 | 1006.1 |
| 20260505040043 | 72 | 199 | 8.0 | 12.0 | 0.00 | 0.00 | 0.00 | 76 | 1006.0 |
| 20260505035538 | 72 | 221 | 6.0 | 10.0 | 0.00 | 0.00 | 0.00 | 75 | 1006.1 |
| 20260505035037 | 72 | 177 | 6.0 | 13.0 | 0.00 | 0.00 | 0.00 | 75 | 1005.8 |
| 20260505034538 | 73 | 190 | 6.0 | 13.0 | 0.00 | 0.00 | 0.00 | 75 | 1006.0 |
| 20260505034037 | 73 | 198 | 6.0 | 10.0 | 0.00 | 0.00 | 0.00 | 75 | 1006.0 |
| 20260505033507 | 73 | 187 | 4.0 | 13.0 | 0.00 | 0.00 | 0.00 | 74 | 1005.9 |
| 20260505033008 | 73 | 190 | 7.0 | 10.0 | 0.00 | 0.00 | 0.00 | 74 | 1006.0 |
| 20260505032507 | 73 | 191 | 7.0 | 11.0 | 0.00 | 0.00 | 0.00 | 74 | 1006.1 |
| 20260505032009 | 73 | 186 | 7.0 | 12.0 | 0.00 | 0.00 | 0.00 | 75 | 1006.0 |
| 20260505031507 | 73 | 216 | 6.0 | 12.0 | 0.00 | 0.00 | 0.00 | 75 | 1006.2 |
| 20260505031009 | 73 | 193 | 7.0 | 11.0 | 0.00 | 0.00 | 0.00 | 75 | 1006.2 |
| 20260505030502 | 73 | 194 | 6.0 | 10.0 | 0.00 | 0.00 | 0.00 | 75 | 1006.0 |
| 20260505030010 | 73 | 194 | 6.0 | 11.0 | 0.00 | 0.00 | 0.00 | 74 | 1005.8 |
| 20260505025504 | 73 | 198 | 7.0 | 11.0 | 0.00 | 0.00 | 0.00 | 75 | 1005.9 |
| 20260505025002 | 73 | 198 | 5.0 | 10.0 | 0.00 | 0.00 | 0.00 | 75 | 1006.0 |
| 20260505024502 | 73 | 190 | 6.0 | 9.0 | 0.00 | 0.00 | 0.00 | 75 | 1006.1 |
| 20260505024002 | 73 | 202 | 5.0 | 10.0 | 0.00 | 0.00 | 0.00 | 75 | 1005.9 |
| 20260505023501 | 73 | 180 | 4.0 | 10.0 | 0.00 | 0.00 | 0.00 | 75 | 1005.8 |
| 20260505023002 | 73 | 163 | 5.0 | 11.0 | 0.00 | 0.00 | 0.00 | 75 | 1005.8 |
| 20260505022602 | 73 | 197 | 5.0 | 9.0 | 0.00 | 0.00 | 0.00 | 75 | 1005.8 |
| 20260505022502 | 73 | 178 | 5.0 | 9.0 | 0.00 | 0.00 | 0.00 | 75 | 1005.8 |
| 20260505022100 | 73 | 175 | 5.0 | 10.0 | 0.00 | 0.00 | 0.00 | 74 | 1005.6 |
| 20260505022002 | 73 | 174 | 5.0 | 10.0 | 0.00 | 0.00 | 0.00 | 74 | 1005.8 |
| 20260505021500 | 73 | 182 | 5.0 | 10.0 | 0.00 | 0.00 | 0.00 | 74 | 1005.7 |
| 20260505021059 | 73 | 176 | 5.0 | 10.0 | 0.00 | 0.00 | 0.00 | 74 | 1005.6 |
| 20260505020559 | 73 | 183 | 4.0 | 9.0 | 0.00 | 0.00 | 0.00 | 74 | 1005.6 |
| 20260505015557 | 74 | 188 | 5.0 | 8.0 | 0.00 | 0.00 | 0.00 | 73 | 1005.8 |
| 20260505015102 | 74 | 190 | 5.0 | 9.0 | 0.00 | 0.00 | 0.00 | 73 | 1005.7 |
| 20260505014558 | 74 | 190 | 5.0 | 10.0 | 0.00 | 0.00 | 0.00 | 73 | 1005.8 |
| 20260505014058 | 74 | 185 | 5.0 | 9.0 | 0.00 | 0.00 | 0.00 | 72 | 1005.6 |
| 20260505013556 | 74 | 199 | 4.0 | 9.0 | 0.00 | 0.00 | 0.00 | 72 | 1005.6 |
| 20260505013056 | 74 | 194 | 4.0 | 8.0 | 0.00 | 0.00 | 0.00 | 71 | 1005.6 |
| 20260505012556 | 74 | 202 | 5.0 | 10.0 | 0.00 | 0.00 | 0.00 | 71 | 1005.4 |
| 20260505012058 | 75 | 197 | 6.0 | 16.0 | 0.00 | 0.00 | 0.00 | 71 | 1005.6 |
| 20260505011556 | 75 | 178 | 7.0 | 16.0 | 0.00 | 0.00 | 0.00 | 71 | 1005.5 |
| 20260505011155 | 75 | 198 | 4.0 | 9.0 | 0.00 | 0.00 | 0.00 | 71 | 1005.5 |
| 20260505010555 | 75 | 190 | 4.0 | 9.0 | 0.00 | 0.00 | 0.00 | 71 | 1005.5 |
| 20260505010024 | 75 | 360 | 6.0 | 10.0 | 0.00 | 0.00 | 0.00 | 70 | 1005.7 |
| 20260505005527 | 75 | 360 | 5.0 | 10.0 | 0.00 | 0.00 | 0.00 | 70 | 1005.6 |
| 20260505005024 | 75 | 360 | 4.0 | 12.0 | 0.00 | 0.00 | 0.00 | 69 | 1005.6 |
| 20260505004522 | 76 | 360 | 5.0 | 14.0 | 0.00 | 0.00 | 0.00 | 69 | 1005.7 |
| 20260505004022 | 76 | 360 | 7.0 | 14.0 | 0.00 | 0.00 | 0.00 | 68 | 1005.8 |
| 20260505003522 | 76 | 360 | 8.0 | 14.0 | 0.00 | 0.00 | 0.00 | 68 | 1005.8 |
| 20260505003056 | 76 | 360 | 8.0 | 14.0 | 0.00 | 0.00 | 0.00 | 68 | 1005.8 |
| 20260505002551 | 76 | 360 | 8.0 | 16.0 | 0.00 | 0.00 | 0.00 | 67 | 1005.9 |
| 20260505002052 | 77 | 360 | 10.0 | 17.0 | 0.00 | 0.00 | 0.00 | 67 | 1006.2 |
| 20260505001552 | 77 | 360 | 7.0 | 17.0 | 0.00 | 0.00 | 0.00 | 67 | 1006.1 |
| 20260505001053 | 77 | 186 | 9.0 | 13.0 | 0.00 | 0.00 | 0.00 | 66 | 1005.9 |
| 20260505000551 | 77 | 180 | 9.0 | 18.0 | 0.00 | 0.00 | 0.00 | 66 | 1006.0 |
| 20260505000050 | 77 | 209 | 12.0 | 18.0 | 0.00 | 0.00 | 0.00 | 65 | 1006.0 |
| 20260504235548 | 78 | 188 | 9.0 | 20.0 | 0.00 | 0.00 | 0.00 | 65 | 1006.0 |
| 20260504235047 | 78 | 182 | 11.0 | 20.0 | 0.00 | 0.00 | 0.00 | 64 | 1005.9 |
| 20260504234546 | 78 | 188 | 12.0 | 18.0 | 0.00 | 0.00 | 0.00 | 64 | 1006.0 |
| 20260504234048 | 78 | 173 | 10.0 | 17.0 | 0.00 | 0.00 | 0.00 | 64 | 1006.2 |
| 20260504233545 | 78 | 194 | 10.0 | 22.0 | 0.00 | 0.00 | 0.00 | 64 | 1006.3 |
| 20260504233045 | 78 | 200 | 12.0 | 22.0 | 0.00 | 0.00 | 0.00 | 64 | 1006.3 |
| 20260504232546 | 78 | 212 | 9.0 | 21.0 | 0.00 | 0.00 | 0.00 | 64 | 1006.4 |
| 20260504232046 | 78 | 213 | 10.0 | 17.0 | 0.00 | 0.00 | 0.00 | 64 | 1006.4 |
| 20260504231544 | 78 | 178 | 10.0 | 17.0 | 0.00 | 0.00 | 0.00 | 64 | 1006.4 |
| 20260504231045 | 78 | 195 | 10.0 | 21.0 | 0.00 | 0.00 | 0.00 | 64 | 1006.4 |
| 20260504230546 | 78 | 209 | 12.0 | 20.0 | 0.00 | 0.00 | 0.00 | 63 | 1006.4 |
| 20260504230042 | 78 | 198 | 14.0 | 25.0 | 0.00 | 0.00 | 0.00 | 63 | 1006.5 |
| 20260504225540 | 78 | 199 | 13.0 | 25.0 | 0.00 | 0.00 | 0.00 | 62 | 1006.4 |
| 20260504225043 | 79 | 188 | 14.0 | 21.0 | 0.00 | 0.00 | 0.00 | 62 | 1006.6 |
| 20260504224541 | 78 | 215 | 12.0 | 21.0 | 0.00 | 0.00 | 0.00 | 63 | 1006.6 |
| 20260504224042 | 79 | 224 | 12.0 | 24.0 | 0.00 | 0.00 | 0.00 | 62 | 1006.8 |
| 20260504223541 | 79 | 187 | 12.0 | 24.0 | 0.00 | 0.00 | 0.00 | 62 | 1006.8 |
| 20260504223039 | 79 | 194 | 11.0 | 17.0 | 0.00 | 0.00 | 0.00 | 62 | 1006.7 |
| 20260504222538 | 79 | 209 | 11.0 | 23.0 | 0.00 | 0.00 | 0.00 | 63 | 1006.8 |
| 20260504222041 | 79 | 196 | 12.0 | 23.0 | 0.00 | 0.00 | 0.00 | 62 | 1006.8 |
| 20260504221540 | 79 | 208 | 14.0 | 20.0 | 0.00 | 0.00 | 0.00 | 62 | 1006.6 |
| 20260504221038 | 79 | 180 | 14.0 | 20.0 | 0.00 | 0.00 | 0.00 | 62 | 1006.9 |
| 20260504220537 | 79 | 219 | 13.0 | 19.0 | 0.00 | 0.00 | 0.00 | 63 | 1007.0 |
| 20260504220036 | 79 | 223 | 11.0 | 23.0 | 0.00 | 0.00 | 0.00 | 62 | 1007.2 |
| 20260504215533 | 79 | 212 | 14.0 | 23.0 | 0.00 | 0.00 | 0.00 | 61 | 1007.1 |
| 20260504215036 | 80 | 198 | 11.0 | 18.0 | 0.00 | 0.00 | 0.00 | 62 | 1007.1 |
| 20260504214539 | 79 | 207 | 11.0 | 22.0 | 0.00 | 0.00 | 0.00 | 61 | 1007.3 |
| 20260504214033 | 79 | 202 | 12.0 | 22.0 | 0.00 | 0.00 | 0.00 | 61 | 1007.2 |
| 20260504213533 | 80 | 232 | 13.0 | 21.0 | 0.00 | 0.00 | 0.00 | 61 | 1007.6 |
| 20260504213031 | 79 | 219 | 13.0 | 23.0 | 0.00 | 0.00 | 0.00 | 61 | 1007.4 |
| 20260504212530 | 79 | 186 | 12.0 | 22.0 | 0.00 | 0.00 | 0.00 | 63 | 1007.6 |
| 20260504212028 | 79 | 209 | 10.0 | 23.0 | 0.00 | 0.00 | 0.00 | 62 | 1007.7 |
| 20260504211528 | 79 | 180 | 15.0 | 24.0 | 0.00 | 0.00 | 0.00 | 61 | 1007.8 |
| 20260504211027 | 79 | 228 | 13.0 | 20.0 | 0.00 | 0.00 | 0.00 | 62 | 1007.9 |
| 20260504210528 | 79 | 188 | 12.0 | 20.0 | 0.00 | 0.00 | 0.00 | 62 | 1008.0 |
| 20260504210027 | 79 | 194 | 13.0 | 25.0 | 0.00 | 0.00 | 0.00 | 62 | 1008.0 |
| 20260504205524 | 79 | 203 | 11.0 | 25.0 | 0.00 | 0.00 | 0.00 | 62 | 1008.1 |
| 20260504205023 | 78 | 192 | 11.0 | 25.0 | 0.00 | 0.00 | 0.00 | 63 | 1008.3 |
| 20260504204522 | 79 | 200 | 13.0 | 25.0 | 0.00 | 0.00 | 0.00 | 62 | 1008.2 |
| 20260504204022 | 79 | 178 | 13.0 | 25.0 | 0.00 | 0.00 | 0.00 | 62 | 1008.4 |
| 20260504203522 | 79 | 196 | 12.0 | 25.0 | 0.00 | 0.00 | 0.00 | 61 | 1008.4 |
| 20260504203021 | 79 | 194 | 15.0 | 24.0 | 0.00 | 0.00 | 0.00 | 61 | 1008.7 |
| 20260504202521 | 79 | 219 | 14.0 | 24.0 | 0.00 | 0.00 | 0.00 | 64 | 1008.8 |
| 20260504202019 | 78 | 198 | 14.0 | 24.0 | 0.00 | 0.00 | 0.00 | 62 | 1008.8 |
| 20260504201519 | 79 | 227 | 13.0 | 21.0 | 0.00 | 0.00 | 0.00 | 62 | 1008.8 |
| 20260504201018 | 78 | 202 | 13.0 | 20.0 | 0.00 | 0.00 | 0.00 | 62 | 1009.1 |
| 20260504200518 | 78 | 169 | 12.0 | 22.0 | 0.00 | 0.00 | 0.00 | 62 | 1009.1 |
| 20260504200033 | 79 | 196 | 13.0 | 22.0 | 0.00 | 0.00 | 0.00 | 63 | 1009.2 |
| 20260504195546 | 79 | 203 | 12.0 | 20.0 | 0.00 | 0.00 | 0.00 | 62 | 1009.6 |
| 20260504195048 | 79 | 184 | 12.0 | 20.0 | 0.00 | 0.00 | 0.00 | 61 | 1009.5 |
| 20260504194548 | 79 | 209 | 13.0 | 20.0 | 0.00 | 0.00 | 0.00 | 60 | 1009.6 |
| 20260504194047 | 78 | 190 | 12.0 | 20.0 | 0.00 | 0.00 | 0.00 | 61 | 1009.4 |
| 20260504193545 | 78 | 273 | 12.0 | 22.0 | 0.00 | 0.00 | 0.00 | 62 | 1009.4 |
| 20260504193044 | 78 | 190 | 11.0 | 22.0 | 0.00 | 0.00 | 0.00 | 62 | 1009.5 |
| 20260504192513 | 78 | 214 | 15.0 | 28.0 | 0.00 | 0.00 | 0.00 | 61 | 1009.6 |
| 20260504192012 | 78 | 223 | 15.0 | 25.0 | 0.00 | 0.00 | 0.00 | 61 | 1009.6 |
| 20260504191524 | 78 | 202 | 11.0 | 25.0 | 0.00 | 0.00 | 0.00 | 62 | 1009.8 |
| 20260504191010 | 78 | 198 | 12.0 | 26.0 | 0.00 | 0.00 | 0.00 | 62 | 1009.9 |
| 20260504190509 | 78 | 194 | 14.0 | 26.0 | 0.00 | 0.00 | 0.00 | 61 | 1010.0 |
| 20260504190012 | 78 | 196 | 16.0 | 23.0 | 0.00 | 0.00 | 0.00 | 62 | 1010.0 |
| 20260504185540 | 78 | 180 | 11.0 | 24.0 | 0.00 | 0.00 | 0.00 | 61 | 1010.1 |
| 20260504185038 | 78 | 189 | 13.0 | 21.0 | 0.00 | 0.00 | 0.00 | 61 | 1010.1 |
| 20260504184551 | 78 | 205 | 12.0 | 22.0 | 0.00 | 0.00 | 0.00 | 62 | 1010.2 |
| 20260504184036 | 77 | 206 | 12.0 | 19.0 | 0.00 | 0.00 | 0.00 | 62 | 1010.2 |
| 20260504183535 | 77 | 203 | 12.0 | 21.0 | 0.00 | 0.00 | 0.00 | 61 | 1010.1 |
| 20260504183041 | 77 | 178 | 11.0 | 21.0 | 0.00 | 0.00 | 0.00 | 62 | 1010.2 |
| 20260504182529 | 77 | 199 | 11.0 | 21.0 | 0.00 | 0.00 | 0.00 | 62 | 1010.4 |
| 20260504182030 | 76 | 217 | 13.0 | 21.0 | 0.00 | 0.00 | 0.00 | 62 | 1010.4 |
| 20260504181529 | 76 | 207 | 11.0 | 21.0 | 0.00 | 0.00 | 0.00 | 61 | 1010.6 |
| 20260504181029 | 76 | 165 | 13.0 | 22.0 | 0.00 | 0.00 | 0.00 | 62 | 1010.5 |
| 20260504180528 | 76 | 193 | 15.0 | 20.0 | 0.00 | 0.00 | 0.00 | 61 | 1010.4 |
| 20260504180026 | 76 | 194 | 12.0 | 20.0 | 0.00 | 0.00 | 0.00 | 61 | 1010.7 |
| 20260504175525 | 76 | 192 | 12.0 | 21.0 | 0.00 | 0.00 | 0.00 | 62 | 1010.7 |
| 20260504175028 | 76 | 212 | 11.0 | 22.0 | 0.00 | 0.00 | 0.00 | 62 | 1010.9 |
| 20260504174523 | 75 | 189 | 14.0 | 24.0 | 0.00 | 0.00 | 0.00 | 61 | 1010.9 |
| 20260504174022 | 75 | 222 | 14.0 | 24.0 | 0.00 | 0.00 | 0.00 | 60 | 1011.1 |
| 20260504173521 | 75 | 169 | 11.0 | 17.0 | 0.00 | 0.00 | 0.00 | 60 | 1011.4 |
| 20260504173021 | 75 | 186 | 12.0 | 21.0 | 0.00 | 0.00 | 0.00 | 61 | 1011.5 |
| 20260504172520 | 75 | 225 | 11.0 | 21.0 | 0.00 | 0.00 | 0.00 | 61 | 1011.4 |
| 20260504172016 | 75 | 193 | 13.0 | 26.0 | 0.00 | 0.00 | 0.00 | 60 | 1011.7 |
| 20260504171516 | 75 | 217 | 10.0 | 26.0 | 0.00 | 0.00 | 0.00 | 61 | 1011.5 |
| 20260504171018 | 75 | 116 | 12.0 | 21.0 | 0.00 | 0.00 | 0.00 | 62 | 1011.6 |
| 20260504170515 | 74 | 207 | 14.0 | 22.0 | 0.00 | 0.00 | 0.00 | 61 | 1011.7 |